Temperature
6 6 6 7 8 9 9 9 9 10 11 11 11 11 12 14 14 14 15 16 17 17 17 17 17 17 17 17 16 16 16 15 15 15 15 15 15 15 15 15 15 14 14 14
5 6 7 8 8 9 9 9 9 10 11 11 10 11 11 12 13 14 15 15 16 16 16 16 17 17 17 17 16 16 16 15 15 15 15 15 15 15 15 15 14 14 14 14
5 6 8 8 8 8 8 8 8 9 11 11 10 10 11 11 13 14 15 15 16 16 16 16 16 16 16 16 16 16 16 16 15 15 15 15 14 14 14 14 14 14 14 14
5 6 7 7 8 8 8 9 9 10 9 9 10 8 9 10 11 12 13 14 14 15 15 15 15 15 16 16 16 16 15 15 15 15 15 15 14 14 15 14 14 14 14 14
5 6 7 7 8 8 8 9 9 9 9 9 9 8 9 9 10 11 11 13 14 14 14 14 14 14 14 15 15 15 15 15 15 14 14 14 14 14 14 14 14 14 14 13
5 6 6 7 8 9 8 8 8 8 8 8 8 8 8 8 10 11 11 12 13 13 13 13 13 13 13 13 14 14 14 14 14 14 14 13 13 13 13 13 13 13 13 13
5 6 6 7 7 8 8 7 7 8 8 7 8 8 9 9 10 10 10 11 12 12 12 12 12 12 12 12 12 13 13 13 13 13 13 13 13 13 13 13 13 13 13 12
5 5 6 7 7 7 7 7 7 7 7 7 8 8 9 9 10 11 11 11 11 11 11 11 11 11 11 11 11 11 12 12 12 12 12 12 12 12 12 12 12 12 12 12
5 6 7 7 8 8 7 7 7 7 7 7 7 8 9 9 8 8 9 10 10 11 11 11 10 10 10 10 10 10 10 11 11 11 11 11 11 11 11 11 11 11 11 11
6 6 6 7 7 7 8 7 6 6 7 7 8 8 8 9 8 8 8 9 10 10 10 10 10 10 9 9 9 9 9 9 10 10 9 10 10 10 10 10 10 10 10 10
5 5 6 6 7 7 7 7 6 6 6 7 7 8 9 8 8 8 8 9 10 10 10 10 9 9 9 8 8 8 8 8 8 8 9 9 9 9 9 9 9 9 9 9
6 5 5 6 7 7 7 7 6 6 6 6 6 7 9 8 8 8 8 9 10 10 10 9 9 8 8 8 8 8 8 8 8 8 8 8 8 8 8 8 8 8 8 8
6 5 5 6 6 7 7 7 7 6 6 5 5 7 9 7 7 9 9 10 10 10 9 9 8 8 8 7 7 7 7 7 7 7 7 7 7 7 7 7 7 7 7 7
7 5 5 6 6 6 6 7 7 6 5 5 6 7 9 8 8 8 9 10 10 9 9 9 8 8 7 7 7 6 6 6 6 6 6 6 6 6 6 6 6 6 6 6
7 6 6 6 7 6 6 6 6 6 6 5 7 7 8 8 8 8 9 9 9 9 9 8 8 7 7 6 6 6 6 5 5 5 5 5 5 5 5 5 5 5 5 5
6 6 6 7 7 7 7 7 7 7 7 6 7 7 8 9 9 9 9 9 9 9 9 9 8 7 7 6 6 5 5 5 5 5 4 4 4 4 4 4 4 4 4 4
6 6 6 5 7 7 6 7 7 6 7 7 7 8 8 8 8 9 9 9 10 10 9 9 8 8 7 6 5 5 4 4 4 4 3 3 3 3 3 3 3 3 3 2
6 6 5 5 6 5 7 8 7 7 7 7 8 8 8 9 10 10 10 10 10 10 10 9 8 7 6 5 5 4 4 3 3 3 3 3 3 3 2 2 2 2 2 2
6 6 5 5 5 5 7 8 8 7 7 7 7 8 8 9 9 8 10 10 10 10 9 9 8 7 6 5 4 3 3 3 2 2 2 2 2 2 2 1 1 1 1 1
6 6 5 5 5 5 7 8 9 8 7 8 7 7 8 8 7 7 9 9 9 9 8 8 7 6 5 4 3 3 2 2 2 2 1 1 1 1 1 1 1 1 0 0
5 5 5 5 5 6 7 8 8 7 7 8 8 8 8 7 8 9 9 9 8 8 7 6 6 5 4 3 3 2 2 2 1 1 1 1 1 0 0 0 0 0 -0 -0
5 5 5 5 5 6 8 7 7 7 8 8 8 8 8 8 9 9 8 8 7 7 6 5 5 4 3 3 2 2 1 1 1 1 0 0 0 0 0 -0 -0 -0 -0 -0
5 5 5 5 6 7 8 8 8 8 8 8 8 8 8 8 8 8 8 7 7 6 5 5 4 3 3 2 2 1 1 1 0 0 0 0 0 0 -0 -0 -0 -0 -0 -1
5 5 5 5 6 7 8 8 8 8 8 8 8 8 8 8 8 7 7 6 6 5 5 4 3 3 3 2 1 1 1 0 0 0 0 0 0 0 -0 -0 -0 -1 -1 -1
5 5 5 5 6 7 7 8 8 8 8 7 7 7 7 7 7 6 6 6 5 5 4 4 3 3 3 2 1 1 0 0 0 0 0 -0 -0 -0 -0 -0 -1 -1 -1 -1
4 5 5 5 6 6 7 8 7 7 7 7 7 7 6 6 6 6 6 5 5 5 4 4 3 3 2 2 2 1 1 0 0 0 0 0 0 -0 -0 -0 -1 -1 -1 -1
Wind_Speed
4 5 9 11 9 4 6 6 7 7 5 7 9 10 9 7 6 7 7 7 7 6 4 2 3 5 5 4 5 5 6 5 5 4 4 4 5 4 4 5 9 11 12 13
3 7 8 7 7 5 5 6 6 3 5 7 8 12 9 9 9 9 8 8 8 5 3 1 2 3 5 5 4 4 4 4 4 4 4 3 3 3 4 3 6 10 10 11
5 3 6 8 8 7 6 7 7 5 3 4 4 7 11 10 9 8 8 8 8 8 7 5 4 3 4 4 3 3 3 3 3 3 2 1 1 0 1 3 4 5 8 9
2 2 6 8 9 8 6 5 6 5 5 5 7 6 8 10 11 12 12 9 9 7 7 6 6 4 4 3 2 3 3 3 2 2 3 3 4 4 4 3 3 3 5 6
2 3 7 9 9 7 4 3 5 5 4 2 3 4 8 5 12 15 14 11 10 9 8 8 7 6 5 4 4 3 4 4 3 3 3 3 3 3 2 1 2 3 3 4
1 0 1 3 4 6 3 3 4 3 2 4 7 6 7 7 11 10 10 11 10 9 8 7 6 6 5 4 4 4 5 4 4 4 3 2 2 1 0 1 2 2 2 2
1 1 1 2 5 4 4 5 4 3 4 6 6 6 10 9 9 11 12 11 10 10 9 8 8 6 5 5 5 5 5 5 4 5 4 3 2 1 1 1 1 1 1 2
4 3 4 3 5 7 7 6 5 6 6 4 5 9 8 7 6 6 9 11 11 10 9 9 8 7 6 6 5 5 5 5 5 5 4 4 4 2 1 1 1 1 1 1
5 3 2 3 3 7 6 5 3 3 2 2 6 6 7 2 3 6 10 11 10 10 9 9 8 7 6 6 5 5 6 5 5 5 5 5 5 4 4 3 3 2 2 2
3 3 3 3 3 1 3 6 4 4 4 4 5 5 5 5 7 8 10 10 9 8 8 8 7 6 6 6 6 6 6 6 5 6 5 5 5 5 5 5 5 5 5 5
3 4 3 3 6 7 5 4 4 4 3 4 4 6 5 10 11 11 10 9 10 9 9 7 6 6 6 6 6 6 6 6 5 5 5 6 6 6 6 6 6 5 6 6
4 3 3 2 2 3 4 6 6 5 5 4 3 7 6 7 9 9 9 8 8 9 8 8 7 7 6 6 6 6 5 5 5 5 6 6 6 6 7 7 7 6 7 7
5 5 4 1 1 2 4 5 5 4 3 4 4 7 5 2 7 9 9 9 8 9 8 7 7 7 7 6 6 6 5 5 5 5 6 6 6 7 7 7 7 7 8 8
5 4 5 8 6 7 6 6 7 6 5 5 7 6 3 3 7 8 9 10 9 9 9 8 7 7 6 6 6 6 5 5 5 6 6 6 6 6 7 7 7 7 8 8
4 3 3 3 3 6 7 8 10 9 8 8 7 7 8 9 10 11 10 10 9 9 9 9 9 7 7 7 6 6 6 5 6 6 6 6 6 6 7 7 7 8 8 8
2 2 1 1 3 4 5 8 11 11 9 9 6 7 7 6 6 7 9 11 10 10 10 10 9 9 9 8 8 7 6 6 6 7 6 6 6 6 7 7 7 8 8 8
1 3 2 2 1 1 6 10 13 8 8 10 12 10 4 5 9 11 11 11 11 11 10 11 10 10 10 9 8 8 7 6 7 7 6 6 6 6 6 7 7 7 7 8
4 3 3 2 1 5 7 4 8 10 10 10 8 7 8 9 8 7 8 10 10 9 10 10 9 9 8 7 7 7 7 7 7 6 6 6 6 6 6 7 7 6 6 6
4 5 3 3 3 6 7 3 4 7 7 9 10 8 6 5 4 1 3 6 8 8 7 7 8 8 8 9 9 9 8 7 7 6 6 6 6 7 7 7 6 5 6 6
3 4 3 3 3 5 5 2 2 3 4 4 8 9 8 8 5 5 4 4 5 6 6 7 8 8 9 8 9 9 8 8 7 7 6 6 6 7 7 6 5 5 5 5
3 3 4 4 4 6 6 2 3 3 5 3 3 7 8 7 6 4 6 5 5 6 6 8 9 8 8 9 9 9 8 7 7 7 7 7 6 6 6 5 5 5 5 5
6 5 5 5 5 7 3 4 5 5 1 1 2 3 5 5 5 5 6 6 7 6 7 8 8 7 7 8 9 9 8 7 8 8 7 7 7 6 6 6 5 5 6 5
7 7 5 7 8 5 4 5 3 4 3 2 2 3 5 5 4 4 5 6 7 7 7 7 8 8 7 7 9 9 8 8 9 8 8 7 7 5 6 6 6 5 4 4
4 4 4 4 6 4 3 2 1 2 3 3 3 4 4 4 4 4 4 5 6 7 7 7 8 9 8 7 8 8 9 9 9 9 8 7 7 6 5 4 5 5 5 5
5 4 4 4 4 2 2 4 4 3 4 4 3 3 3 4 3 4 4 5 6 7 7 8 9 9 9 8 8 9 10 10 9 9 8 7 6 6 5 4 4 5 5 6
4 6 6 6 6 5 5 4 5 5 4 4 3 2 2 2 2 3 3 4 5 7 7 8 9 9 9 9 9 9 10 11 10 9 8 7 6 5 5 5 3 4 5 6
Wind_Direction
160 177 196 197 194 185 154 154 174 203 206 180 213 235 246 262 256 242 239 228 225 224 231 195 174 164 153 150 155 168 175 186 180 180 190 198 211 211 210 213 215 215 217 216
149 210 205 185 187 193 185 175 184 217 211 190 219 241 245 244 243 233 224 222 214 208 199 151 122 120 128 136 138 142 154 164 178 194 195 195 199 212 219 221 226 225 224 224
179 195 184 189 190 198 207 191 186 197 196 186 179 259 248 247 241 241 229 211 200 190 182 164 129 114 114 117 127 135 140 145 163 176 162 142 141 196 225 235 238 237 236 235
180 223 179 185 196 188 213 205 199 190 156 204 183 235 257 231 236 234 230 214 200 185 167 156 143 127 118 120 107 107 119 116 116 131 139 158 187 211 226 236 245 256 246 244
177 175 168 190 198 178 192 197 192 179 158 172 187 202 272 230 226 230 223 213 200 181 165 156 147 137 121 104 89 82 86 80 78 96 133 156 185 219 247 261 264 263 266 262
173 274 170 180 182 178 158 107 89 73 108 218 208 193 264 227 218 219 211 202 187 171 156 143 131 119 103 87 78 78 81 68 60 74 86 127 161 190 220 278 274 275 276 277
115 229 204 163 139 157 156 138 139 164 196 231 195 200 246 245 230 212 197 184 170 159 150 143 136 125 112 95 81 79 82 65 53 61 60 63 88 121 166 244 266 295 312 313
151 183 187 174 166 168 181 168 169 177 190 232 193 221 250 273 258 195 166 157 151 151 150 146 142 133 121 106 93 88 84 70 55 60 58 50 49 57 53 43 43 29 334 312
162 170 143 163 144 147 154 186 177 132 151 191 235 262 299 13 96 128 139 144 152 154 152 147 141 133 126 112 100 98 93 77 59 57 64 55 46 51 54 48 45 36 14 8
138 139 150 139 112 148 157 152 136 148 166 217 255 246 235 209 184 168 161 158 157 151 147 144 142 138 129 118 104 91 88 81 64 57 57 64 50 49 53 57 50 42 31 30
135 136 137 146 187 180 161 163 167 159 182 179 234 261 227 208 194 182 177 169 164 161 158 154 148 139 128 117 108 99 89 81 69 63 62 60 52 51 54 55 47 45 42 41
158 131 132 181 242 194 178 182 165 167 208 191 199 266 290 228 189 170 170 171 167 162 159 154 147 138 131 125 117 109 101 92 82 77 73 66 59 58 57 53 46 48 51 48
150 131 118 91 298 215 208 198 185 154 136 174 189 262 328 105 149 162 164 165 163 158 155 151 148 148 146 140 130 120 112 106 97 90 82 72 64 64 62 57 53 56 59 56
135 135 169 189 203 179 192 201 182 159 184 210 221 248 278 171 164 170 170 169 168 169 167 163 163 161 156 148 141 131 122 117 109 98 90 81 72 70 69 65 61 60 62 63
120 156 205 228 198 167 193 199 192 196 197 198 228 228 230 207 186 180 177 173 172 178 179 179 175 170 161 152 147 138 130 122 115 107 99 91 83 78 75 71 67 64 65 66
109 153 157 285 219 199 222 219 207 212 211 220 239 254 242 210 180 177 181 179 185 192 192 187 180 173 170 165 159 147 137 130 121 114 109 103 96 88 84 80 78 74 69 66
139 144 144 260 272 43 259 225 210 209 207 200 222 233 225 185 190 192 191 191 197 199 195 188 184 180 175 170 161 154 144 132 123 119 116 113 109 102 97 96 89 82 78 75
159 143 150 173 118 236 245 236 202 213 224 207 212 214 207 205 200 197 192 194 203 200 192 186 176 168 161 156 149 141 137 135 131 129 128 127 124 118 111 104 98 91 85 81
163 158 165 174 227 275 285 251 182 192 246 220 211 208 201 174 132 237 217 198 199 192 180 172 163 155 152 153 149 141 139 139 140 142 143 141 137 133 127 118 111 105 101 92
127 132 158 185 216 247 265 277 166 134 263 261 204 196 182 150 173 231 196 157 150 141 140 143 141 141 150 154 149 147 151 154 157 154 149 144 143 140 135 129 120 112 111 108
159 175 191 203 239 266 260 235 109 170 250 309 180 176 167 175 192 178 144 139 141 139 139 141 145 152 159 155 152 155 159 165 157 147 144 143 142 141 139 132 126 125 119 112
179 187 195 185 216 254 242 145 183 215 221 71 93 132 146 144 128 133 145 150 148 145 145 148 151 155 157 157 156 160 167 158 147 147 148 146 146 149 147 140 136 133 132 129
194 193 190 197 218 247 214 200 212 171 151 128 117 118 129 133 150 160 166 166 167 166 164 161 158 158 162 166 164 167 167 156 152 152 154 154 154 152 150 151 151 148 149 151
249 190 184 233 255 247 232 216 177 153 142 127 122 129 137 150 167 177 179 180 180 180 177 169 165 171 178 177 174 170 164 162 159 162 164 163 161 157 156 159 163 165 171 173
236 192 197 240 259 261 248 211 186 139 115 111 102 107 130 144 169 186 194 198 195 190 184 178 181 186 186 180 178 173 169 167 168 170 172 172 170 164 163 166 177 180 195 189
216 191 190 222 220 202 220 205 168 151 152 146 133 117 103 152 192 198 209 207 199 193 185 186 190 190 187 183 183 180 177 175 173 176 179 177 170 165 162 156 153 196 194 203
Height
1484 1487 1487 1487 1489 1490 1492 1496 1499 1500 1496 1499 1501 1501 1499 1497 1498 1499 1500 1501 1503 1505 1508 1511 1513 1515 1517 1519 1521 1523 1525 1527 1529 1531 1532 1533 1535 1537 1538 1539 1541 1542 1543 1544
1486 1485 1484 1486 1488 1490 1492 1496 1498 1497 1495 1498 1501 1500 1497 1496 1496 1496 1497 1498 1500 1502 1504 1507 1509 1511 1513 1515 1517 1519 1521 1523 1525 1526 1528 1530 1531 1533 1534 1536 1536 1537 1538 1539
1484 1483 1482 1485 1488 1491 1493 1496 1498 1498 1496 1497 1502 1503 1498 1493 1493 1493 1494 1495 1496 1498 1500 1503 1505 1508 1510 1512 1514 1516 1517 1519 1521 1522 1524 1526 1527 1528 1530 1530 1531 1533 1533 1534
1483 1482 1483 1485 1487 1490 1493 1492 1495 1496 1500 1504 1503 1510 1497 1491 1490 1489 1489 1490 1492 1495 1497 1500 1502 1504 1506 1508 1510 1512 1514 1515 1517 1518 1519 1521 1522 1523 1524 1525 1526 1528 1528 1529
1483 1481 1482 1485 1486 1488 1491 1491 1493 1496 1500 1503 1502 1507 1498 1489 1488 1483 1483 1485 1488 1491 1494 1496 1499 1501 1503 1505 1506 1508 1510 1511 1512 1514 1515 1516 1517 1518 1519 1520 1521 1522 1522 1523
1482 1482 1483 1483 1484 1487 1490 1493 1496 1498 1502 1506 1502 1506 1498 1487 1479 1476 1478 1481 1484 1488 1491 1494 1496 1498 1500 1501 1503 1505 1506 1507 1508 1509 1510 1511 1512 1513 1514 1515 1515 1516 1517 1517
1482 1482 1482 1482 1485 1488 1490 1496 1500 1501 1503 1503 1497 1498 1489 1475 1471 1470 1472 1475 1480 1484 1488 1490 1493 1495 1497 1498 1500 1501 1502 1503 1504 1505 1506 1507 1508 1509 1509 1510 1510 1510 1511 1511
1483 1484 1480 1480 1481 1484 1488 1492 1497 1500 1502 1502 1495 1493 1480 1471 1466 1466 1468 1472 1477 1482 1485 1488 1491 1493 1494 1496 1497 1498 1499 1500 1501 1502 1502 1503 1503 1504 1504 1505 1505 1505 1505 1505
1480 1481 1478 1479 1480 1482 1487 1490 1490 1496 1497 1499 1494 1485 1476 1469 1467 1467 1469 1472 1476 1480 1483 1486 1489 1491 1492 1494 1495 1496 1496 1497 1498 1498 1499 1499 1499 1500 1500 1500 1500 1500 1500 1500
1475 1479 1478 1479 1480 1482 1483 1486 1493 1497 1497 1494 1487 1483 1479 1471 1470 1470 1470 1472 1475 1479 1482 1485 1487 1489 1491 1492 1492 1493 1494 1494 1495 1495 1495 1495 1496 1496 1496 1496 1496 1496 1495 1495
1474 1478 1480 1480 1480 1480 1484 1486 1487 1492 1493 1493 1491 1482 1467 1466 1465 1467 1469 1471 1475 1478 1481 1484 1486 1488 1489 1490 1490 1491 1492 1492 1492 1492 1492 1493 1493 1493 1492 1492 1492 1492 1492 1491
1472 1478 1479 1480 1478 1477 1478 1480 1484 1489 1490 1492 1494 1483 1461 1461 1462 1465 1468 1472 1475 1478 1480 1483 1485 1486 1487 1488 1488 1489 1489 1490 1490 1490 1490 1490 1490 1490 1490 1489 1489 1489 1488 1488
1469 1476 1481 1482 1483 1479 1477 1477 1478 1482 1487 1493 1494 1480 1461 1460 1462 1465 1468 1471 1474 1477 1479 1481 1483 1484 1485 1485 1486 1486 1487 1487 1487 1487 1487 1487 1487 1487 1487 1486 1486 1486 1486 1485
1466 1472 1477 1477 1474 1474 1475 1474 1475 1480 1487 1487 1483 1473 1465 1463 1464 1465 1467 1470 1473 1475 1477 1479 1480 1482 1483 1483 1484 1484 1484 1484 1485 1485 1485 1485 1484 1484 1484 1484 1484 1484 1483 1483
1465 1470 1469 1468 1466 1469 1470 1470 1472 1475 1477 1480 1472 1468 1463 1462 1462 1463 1466 1468 1471 1473 1475 1477 1478 1479 1480 1481 1481 1482 1482 1482 1482 1482 1482 1482 1482 1482 1482 1482 1482 1482 1482 1481
1464 1468 1468 1467 1465 1466 1467 1466 1467 1468 1469 1469 1467 1465 1458 1458 1460 1462 1464 1466 1468 1470 1472 1474 1475 1476 1477 1478 1479 1479 1479 1479 1479 1480 1480 1480 1480 1480 1480 1481 1481 1481 1481 1481
1465 1467 1470 1472 1466 1466 1469 1460 1460 1461 1460 1461 1462 1459 1457 1458 1459 1460 1462 1464 1465 1467 1469 1470 1472 1473 1474 1475 1476 1476 1477 1477 1477 1477 1478 1478 1478 1479 1479 1479 1480 1480 1480 1481
1464 1467 1471 1472 1471 1474 1459 1451 1451 1453 1452 1453 1452 1452 1453 1454 1455 1457 1459 1461 1463 1464 1466 1467 1469 1470 1471 1472 1473 1474 1474 1474 1475 1476 1476 1476 1477 1477 1478 1479 1479 1480 1480 1481
1461 1464 1469 1472 1473 1466 1454 1448 1448 1451 1450 1447 1448 1449 1450 1452 1454 1456 1457 1459 1460 1462 1463 1465 1466 1467 1468 1469 1470 1471 1471 1472 1473 1474 1474 1475 1476 1476 1477 1478 1479 1480 1481 1481
1460 1462 1467 1468 1469 1466 1452 1446 1445 1448 1449 1443 1443 1445 1448 1450 1456 1455 1454 1456 1458 1459 1461 1462 1463 1464 1465 1466 1467 1468 1469 1470 1471 1472 1473 1474 1475 1476 1477 1478 1479 1480 1481 1481
1462 1463 1465 1466 1465 1458 1448 1445 1446 1454 1449 1442 1440 1442 1445 1447 1450 1451 1452 1454 1455 1457 1458 1459 1460 1461 1463 1464 1464 1465 1467 1468 1469 1470 1471 1473 1474 1476 1477 1478 1479 1480 1481 1481
1459 1461 1462 1463 1463 1459 1444 1445 1447 1446 1443 1442 1441 1442 1444 1445 1448 1449 1451 1452 1453 1454 1455 1456 1458 1459 1460 1461 1462 1463 1465 1466 1468 1469 1470 1472 1474 1475 1477 1478 1479 1480 1481 1481
1452 1452 1453 1454 1452 1444 1442 1442 1442 1442 1442 1442 1442 1443 1444 1445 1447 1448 1450 1451 1451 1452 1453 1454 1455 1456 1457 1459 1460 1461 1463 1465 1466 1468 1469 1471 1473 1475 1476 1478 1479 1479 1480 1480
1447 1445 1448 1447 1444 1442 1441 1441 1441 1442 1442 1442 1443 1443 1444 1445 1446 1447 1448 1449 1449 1450 1451 1452 1453 1454 1455 1456 1458 1459 1461 1463 1465 1466 1468 1470 1472 1474 1475 1477 1478 1479 1479 1479
1444 1443 1444 1444 1441 1440 1439 1440 1441 1441 1442 1442 1443 1443 1444 1445 1445 1446 1446 1447 1447 1448 1448 1449 1450 1451 1452 1454 1455 1457 1459 1461 1463 1465 1467 1469 1471 1473 1474 1475 1476 1477 1478 1478
1440 1441 1442 1441 1438 1438 1437 1438 1439 1440 1441 1442 1442 1442 1443 1443 1444 1444 1444 1444 1445 1445 1446 1446 1447 1448 1449 1451 1452 1454 1456 1458 1461 1463 1465 1467 1469 1471 1472 1474 1475 1475 1476 1476